This is the latest recevied weather packets stored in our database for station/object IW2NIA-3. If no packets are shown the sender has not sent any weather packets the latest 10 day(s).
| Time | Temp. | Humidity | Pressure | Rain* | Wind** | Luminosity | Snow |
|---|---|---|---|---|---|---|---|
| 1787464114 | 19.44° C | 81% | 1018.6 hPa | 0 mm | - | - | - |
| 1787463211 | 18.89° C | 82% | 1018.5 hPa | 0 mm | - | - | - |
| 1787462325 | 18.89° C | 82% | 1018.3 hPa | 0 mm | - | - | - |
| 1787461419 | 18.33° C | 82% | 1018 hPa | 0 mm | - | - | - |
| 1787460513 | 18.33° C | 81% | 1017.9 hPa | 0 mm | - | - | - |
| 1787459613 | 18.89° C | 81% | 1017.6 hPa | 0 mm | - | - | - |
| 1787458712 | 18.89° C | 80% | 1017.4 hPa | 0 mm | - | - | - |
| 1787457828 | 18.89° C | 80% | 1017.3 hPa | 0 mm | - | - | - |
| 1787456922 | 18.89° C | 80% | 1017.4 hPa | 0 mm | - | - | - |
| 1787456020 | 18.33° C | 81% | 1017.2 hPa | 0 mm | - | - | - |
| 1787455113 | 18.33° C | 82% | 1017.3 hPa | 0 mm | - | - | - |
| 1787454213 | 17.78° C | 83% | 1017.4 hPa | 0 mm | - | - | - |
| 1787453325 | 17.78° C | 84% | 1017.5 hPa | 0 mm | - | - | - |
| 1787452421 | 17.22° C | 85% | 1017.5 hPa | 0 mm | - | - | - |
| 1787451523 | 17.22° C | 84% | 1017.4 hPa | 0 mm | - | - | - |
| 1787450616 | 17.22° C | 82% | 1017.3 hPa | 0 mm | - | - | - |
| 1787449714 | 17.78° C | 80% | 1017.2 hPa | 0 mm | - | - | - |
| 1787448828 | 18.33° C | 78% | 1016.9 hPa | 0 mm | - | - | - |
| 1787447923 | 18.33° C | 77% | 1016.7 hPa | 0 mm | - | - | - |
| 1787447021 | 18.33° C | 77% | 1016.6 hPa | 0 mm | - | - | - |
| 1787446114 | 18.33° C | 77% | 1016.4 hPa | 0 mm | - | - | - |
| 1787445226 | 18.33° C | 77% | 1016.3 hPa | 0 mm | - | - | - |
| 1787444320 | 18.33° C | 78% | 1016.2 hPa | 0 mm | - | - | - |
| 1787443409 | 18.33° C | 77% | 1016.1 hPa | 0 mm | - | - | - |
| 1787442513 | 18.33° C | 77% | 1016.1 hPa | 0 mm | - | - | - |
* Rain latest hour (hover to see other rain measurements)
** Current wind speed in m/s (hover to see current wind gust speed)